Location: Newark
(27.9675°N, 86.8869°E)
Time: 13:49:25
(UTC+00:00)

Vanguard 3 - Pass Details

Date: 27 October 2019
Orbit: 508 x 3263 km, 33.4° (Epoch: 20 November)

Event Time Altitude Azimuth Distance (km) Brightness Sun altitude
Rises 14:55:33 0° 249° (WSW) 4,743 11.7 -45.3°
Reaches altitude 10° 14:59:25 10° 250° (WSW) 3,309 10.7 -46.1°
Enters shadow 15:02:03 20° 250° (WSW) 2,316 9.8 -46.7°
Maximum altitude 15:07:00 88° 336° (NNW) 842 - -47.8°
Drops below altitude 10° 15:11:32 10° 70° (ENE) 2,024 - -48.8°
Sets 15:13:25 0° 70° (ENE) 2,790 - -49.2°
